owner,sensor,date,latitude,longitude,vertical_datum,wind_speed,wind_to_direction,wind_speed_of_gust,qcFlag 
TABS,ioos:station:wmo:42043:1,2013-02-01T00:00:00Z,28.9818,-94.9186,4.0,3.965059899,204.4321491,4.75,'11111222,11111222,11111222' 
TABS,ioos:station:wmo:42043:1,2013-02-01T00:30:00Z,28.9818,-94.9186,4.0,3.716180835,203.8060983,5.12,'11111222,11111222,11111222' 
TABS,ioos:station:wmo:42043:1,2013-02-01T01:00:00Z,28.9818,-94.9186,4.0,4.857828733,188.0468941,6.0,'11111222,11111222,11111222' 
TABS,ioos:station:wmo:42043:1,2013-02-01T01:30:00Z,28.9818,-94.9186,4.0,4.912321244,189.1365348,6.2,'11111222,11111222,11111222' 
TABS,ioos:station:wmo:42043:1,2013-02-01T02:00:00Z,28.9818,-94.9186,4.0,5.180366782,199.2745527,6.65,'11111222,11111222,11111222' 
TABS,ioos:station:wmo:42043:1,2013-02-01T02:30:00Z,28.9818,-94.9186,4.0,5.085322015,205.7589816,6.31,'11111222,11111222,11111222' 
TABS,ioos:station:wmo:42043:1,2013-02-01T03:00:00Z,28.9818,-94.9186,4.0,4.122438599,212.4180286,5.5,'11111222,11111222,11111222' 
TABS,ioos:station:wmo:42043:1,2013-02-01T03:30:00Z,28.9818,-94.9186,4.0,3.630674868,209.1773695,4.45,'11111222,11111222,11111222' 
TABS,ioos:station:wmo:42043:1,2013-02-01T04:00:00Z,28.9818,-94.9186,4.0,4.061588359,205.3664568,5.07,'11111222,11111222,11111222' 
TABS,ioos:station:wmo:42043:1,2013-02-01T04:30:00Z,28.9818,-94.9186,4.0,3.656364314,211.1251389,4.42,'11111222,11111222,11111222' 
TABS,ioos:station:wmo:42043:1,2013-02-01T05:00:00Z,28.9818,-94.9186,4.0,3.228157369,194.1655621,4.04,'11111222,11111222,11111222' 
TABS,ioos:station:wmo:42043:1,2013-02-01T05:30:00Z,28.9818,-94.9186,4.0,3.286943869,191.583602,4.19,'11111222,11111222,11111222' 
TABS,ioos:station:wmo:42043:1,2013-02-01T06:00:00Z,28.9818,-94.9186,4.0,2.674789711,189.2512184,3.24,'11111222,11111222,11111222' 
TABS,ioos:station:wmo:42043:1,2013-02-01T06:30:00Z,28.9818,-94.9186,4.0,3.066153943,189.9540429,3.89,'11111222,11111222,11111222' 
TABS,ioos:station:wmo:42043:1,2013-02-01T07:00:00Z,28.9818,-94.9186,4.0,2.922071183,182.1575879,3.5,'11111222,11111222,11111222' 
TABS,ioos:station:wmo:42043:1,2013-02-01T07:30:00Z,28.9818,-94.9186,4.0,2.8912627,173.0472692,3.6,'11111222,11111222,11111222' 
TABS,ioos:station:wmo:42043:1,2013-02-01T08:00:00Z,28.9818,-94.9186,4.0,2.951491149,171.6230463,3.65,'11111222,11111222,11111222' 
TABS,ioos:station:wmo:42043:1,2013-02-01T08:30:00Z,28.9818,-94.9186,4.0,2.318641844,166.0239325,2.81,'11111222,11111222,11111222' 
TABS,ioos:station:wmo:42043:1,2013-02-01T09:00:00Z,28.9818,-94.9186,4.0,1.954788991,160.2675671,2.45,'11111222,11111222,11111222' 
TABS,ioos:station:wmo:42043:1,2013-02-01T09:30:00Z,28.9818,-94.9186,4.0,2.040122545,155.0682076,2.42,'11111222,11111222,11111222' 
TABS,ioos:station:wmo:42043:1,2013-02-01T10:00:00Z,28.9818,-94.9186,4.0,2.202725584,159.2615498,2.74,'11111222,11111222,11111222' 
TABS,ioos:station:wmo:42043:1,2013-02-01T10:30:00Z,28.9818,-94.9186,4.0,2.196406156,163.8756916,2.7,'11111222,11111222,11111222' 
TABS,ioos:station:wmo:42043:1,2013-02-01T11:00:00Z,28.9818,-94.9186,4.0,2.524638588,159.8426467,2.98,'11111222,11111222,11111222' 
TABS,ioos:station:wmo:42043:1,2013-02-01T11:30:00Z,28.9818,-94.9186,4.0,1.675738643,149.9161242,2.09,'11111222,11111222,11111222' 
TABS,ioos:station:wmo:42043:1,2013-02-01T12:00:00Z,28.9818,-94.9186,4.0,1.198665925,154.2903168,1.53,'11111222,11111222,11111222' 
TABS,ioos:station:wmo:42043:1,2013-02-01T12:30:00Z,28.9818,-94.9186,4.0,1.311258937,151.2852001,1.61,'11111222,11111222,11111222' 
TABS,ioos:station:wmo:42043:1,2013-02-01T13:00:00Z,28.9818,-94.9186,4.0,1.454991409,150.7926823,1.78,'11111222,11111222,11111222' 
TABS,ioos:station:wmo:42043:1,2013-02-01T13:30:00Z,28.9818,-94.9186,4.0,1.223478647,134.0068492,1.61,'11111222,11111222,11111222' 
TABS,ioos:station:wmo:42043:1,2013-02-01T14:00:00Z,28.9818,-94.9186,4.0,1.189831921,123.6904097,1.49,'11111222,11111222,11111222' 
TABS,ioos:station:wmo:42043:1,2013-02-01T14:30:00Z,28.9818,-94.9186,4.0,1.64468842,107.3336231,1.97,'11111222,11111222,11111222' 
TABS,ioos:station:wmo:42043:1,2013-02-01T15:00:00Z,28.9818,-94.9186,4.0,1.262893503,98.19466509,1.5,'11111222,11111222,11111222' 
TABS,ioos:station:wmo:42043:1,2013-02-01T15:30:00Z,28.9818,-94.9186,4.0,1.380796871,102.1241308,1.76,'11111222,11111222,11111222' 
TABS,ioos:station:wmo:42043:1,2013-02-01T16:00:00Z,28.9818,-94.9186,4.0,1.510033112,112.9996688,2.0,'11111222,11111222,11111222' 
TABS,ioos:station:wmo:42043:1,2013-02-01T16:30:00Z,28.9818,-94.9186,4.0,2.022003956,124.3191432,2.55,'11111222,11111222,11111222' 
TABS,ioos:station:wmo:42043:1,2013-02-01T17:00:00Z,28.9818,-94.9186,4.0,2.458149711,131.5370798,2.99,'11111222,11111222,11111222' 
TABS,ioos:station:wmo:42043:1,2013-02-01T17:30:00Z,28.9818,-94.9186,4.0,2.906217473,135.1397209,3.44,'11111222,11111222,11111222' 
TABS,ioos:station:wmo:42043:1,2013-02-01T18:00:00Z,28.9818,-94.9186,4.0,2.953116997,138.1573084,3.69,'11111222,11111222,11111222' 
TABS,ioos:station:wmo:42043:1,2013-02-01T18:30:00Z,28.9818,-94.9186,4.0,3.468313711,132.4295846,4.31,'11111222,11111222,11111222' 
TABS,ioos:station:wmo:42043:1,2013-02-01T19:00:00Z,28.9818,-94.9186,4.0,3.770968045,115.2742676,4.94,'11111222,11111222,11111222' 
TABS,ioos:station:wmo:42043:1,2013-02-01T19:30:00Z,28.9818,-94.9186,4.0,4.59358248,130.9398436,5.45,'11111222,11111222,11111222' 
TABS,ioos:station:wmo:42043:1,2013-02-01T20:00:00Z,28.9818,-94.9186,4.0,4.349091859,131.6448034,5.56,'11111222,11111222,11111222' 
TABS,ioos:station:wmo:42043:1,2013-02-01T20:30:00Z,28.9818,-94.9186,4.0,4.028659827,132.0826755,5.03,'11111222,11111222,11111222' 
TABS,ioos:station:wmo:42043:1,2013-02-01T21:00:00Z,28.9818,-94.9186,4.0,3.587199465,117.5654818,4.5,'11111222,11111222,11111222' 
TABS,ioos:station:wmo:42043:1,2013-02-01T21:30:00Z,28.9818,-94.9186,4.0,4.045268841,133.9987456,5.54,'11111222,11111222,11111222' 
TABS,ioos:station:wmo:42043:1,2013-02-01T22:00:00Z,28.9818,-94.9186,4.0,4.78257253,136.864309,6.45,'11111222,11111222,11111222' 
TABS,ioos:station:wmo:42043:1,2013-02-01T22:30:00Z,28.9818,-94.9186,4.0,3.900833244,115.1858503,4.86,'11111222,11111222,11111222' 
TABS,ioos:station:wmo:42043:1,2013-02-01T23:00:00Z,28.9818,-94.9186,4.0,3.538827489,118.158557,4.94,'11111222,11111222,11111222' 
TABS,ioos:station:wmo:42043:1,2013-02-01T23:30:00Z,28.9818,-94.9186,4.0,3.599124894,111.0035945,4.4,'11111222,11111222,11111222' 
TABS,ioos:station:wmo:42043:1,2013-02-02T00:00:00Z,28.9818,-94.9186,4.0,3.410879652,105.2997022,4.26,'11111222,11111222,11111222' 
TABS,ioos:station:wmo:42043:1,2013-02-02T00:30:00Z,28.9818,-94.9186,4.0,3.583364341,109.3960638,4.42,'11111222,11111222,11111222' 
TABS,ioos:station:wmo:42043:1,2013-02-02T01:00:00Z,28.9818,-94.9186,4.0,3.646505176,114.8084258,4.99,'11111222,11111222,11111222' 
TABS,ioos:station:wmo:42043:1,2013-02-02T01:30:00Z,28.9818,-94.9186,4.0,4.503709582,115.9395639,5.75,'11111222,11111222,11111222' 
TABS,ioos:station:wmo:42043:1,2013-02-02T02:00:00Z,28.9818,-94.9186,4.0,4.217831196,117.5374592,5.35,'11111222,11111222,11111222' 
TABS,ioos:station:wmo:42043:1,2013-02-02T02:30:00Z,28.9818,-94.9186,4.0,4.323910267,123.8741667,5.45,'11111222,11111222,11111222' 
TABS,ioos:station:wmo:42043:1,2013-02-02T03:00:00Z,28.9818,-94.9186,4.0,5.035096821,134.1956545,6.32,'11111222,11111222,11111222' 
TABS,ioos:station:wmo:42043:1,2013-02-02T03:30:00Z,28.9818,-94.9186,4.0,5.289272162,144.3870611,6.84,'11111222,11111222,11111222' 
TABS,ioos:station:wmo:42043:1,2013-02-02T04:00:00Z,28.9818,-94.9186,4.0,4.870831551,148.4313132,5.76,'11111222,11111222,11111222' 
TABS,ioos:station:wmo:42043:1,2013-02-02T04:30:00Z,28.9818,-94.9186,4.0,4.375294276,151.912383,5.25,'11111222,11111222,11111222' 
TABS,ioos:station:wmo:42043:1,2013-02-02T05:00:00Z,28.9818,-94.9186,4.0,3.962953444,156.3460524,4.7,'11111222,11111222,11111222' 
TABS,ioos:station:wmo:42043:1,2013-02-02T05:30:00Z,28.9818,-94.9186,4.0,3.604400089,163.727327,4.39,'11111222,11111222,11111222' 
TABS,ioos:station:wmo:42043:1,2013-02-02T06:00:00Z,28.9818,-94.9186,4.0,3.129233133,157.4508207,3.96,'11111222,11111222,11111222' 
TABS,ioos:station:wmo:42043:1,2013-02-02T06:30:00Z,28.9818,-94.9186,4.0,3.101612484,163.9026051,3.91,'11111222,11111222,11111222' 
TABS,ioos:station:wmo:42043:1,2013-02-02T07:00:00Z,28.9818,-94.9186,4.0,3.600999861,169.4392245,4.27,'11111222,11111222,11111222' 
TABS,ioos:station:wmo:42043:1,2013-02-02T07:30:00Z,28.9818,-94.9186,4.0,2.744922585,161.9613513,3.59,'11111222,11111222,11111222' 
TABS,ioos:station:wmo:42043:1,2013-02-02T08:00:00Z,28.9818,-94.9186,4.0,2.080192299,146.7685771,2.53,'11111222,11111222,11111222' 
TABS,ioos:station:wmo:42043:1,2013-02-02T08:30:00Z,28.9818,-94.9186,4.0,1.636245703,110.7613372,2.49,'11111222,11111222,11111222' 
TABS,ioos:station:wmo:42043:1,2013-02-02T09:00:00Z,28.9818,-94.9186,4.0,2.150348809,133.4928835,2.51,'11111222,11111222,11111222' 
TABS,ioos:station:wmo:42043:1,2013-02-02T09:30:00Z,28.9818,-94.9186,4.0,2.708394358,130.8081319,3.27,'11111222,11111222,11111222' 
TABS,ioos:station:wmo:42043:1,2013-02-02T10:00:00Z,28.9818,-94.9186,4.0,2.341815535,119.4114165,2.81,'11111222,11111222,11111222' 
TABS,ioos:station:wmo:42043:1,2013-02-02T10:30:00Z,28.9818,-94.9186,4.0,1.884038216,127.2351678,2.44,'11111222,11111222,11111222' 
TABS,ioos:station:wmo:42043:1,2013-02-02T11:00:00Z,28.9818,-94.9186,4.0,2.531600284,110.582907,3.08,'11111222,11111222,11111222' 
TABS,ioos:station:wmo:42043:1,2013-02-02T11:30:00Z,28.9818,-94.9186,4.0,2.620305326,90.87509564,3.06,'11111222,11111222,11111222' 
TABS,ioos:station:wmo:42043:1,2013-02-02T12:00:00Z,28.9818,-94.9186,4.0,2.2173182,94.65675638,2.65,'11111222,11111222,11111222' 
TABS,ioos:station:wmo:42043:1,2013-02-02T12:30:00Z,28.9818,-94.9186,4.0,2.774617091,93.30624342,3.23,'11111222,11111222,11111222' 
TABS,ioos:station:wmo:42043:1,2013-02-02T13:00:00Z,28.9818,-94.9186,4.0,2.69786953,96.59857894,3.23,'11111222,11111222,11111222' 
TABS,ioos:station:wmo:42043:1,2013-02-02T13:30:00Z,28.9818,-94.9186,4.0,2.547861849,94.50259988,3.03,'11111222,11111222,11111222' 
TABS,ioos:station:wmo:42043:1,2013-02-02T14:00:00Z,28.9818,-94.9186,4.0,2.321055794,88.27135547,2.75,'11111222,11111222,11111222' 
TABS,ioos:station:wmo:42043:1,2013-02-02T14:30:00Z,28.9818,-94.9186,4.0,2.493391265,87.01095362,3.23,'11111222,11111222,11111222' 
TABS,ioos:station:wmo:42043:1,2013-02-02T15:00:00Z,28.9818,-94.9186,4.0,2.779082582,78.16403968,3.38,'11111222,11111222,11111222' 
TABS,ioos:station:wmo:42043:1,2013-02-02T15:30:00Z,28.9818,-94.9186,4.0,2.87675164,83.81336322,3.52,'11111222,11111222,11111222' 
TABS,ioos:station:wmo:42043:1,2013-02-02T16:00:00Z,28.9818,-94.9186,4.0,2.525074256,86.36663684,3.08,'11111222,11111222,11111222' 
TABS,ioos:station:wmo:42043:1,2013-02-02T16:30:00Z,28.9818,-94.9186,4.0,2.175178154,86.04534061,2.7,'11111222,11111222,11111222' 
TABS,ioos:station:wmo:42043:1,2013-02-02T17:00:00Z,28.9818,-94.9186,4.0,2.290785891,91.50127349,2.93,'11111222,11111222,11111222' 
TABS,ioos:station:wmo:42043:1,2013-02-02T17:30:00Z,28.9818,-94.9186,4.0,2.328604732,94.92751934,2.91,'11111222,11111222,11111222' 
TABS,ioos:station:wmo:42043:1,2013-02-02T18:00:00Z,28.9818,-94.9186,4.0,1.992034136,87.41008329,2.51,'11111222,11111222,11111222' 
TABS,ioos:station:wmo:42043:1,2013-02-02T18:30:00Z,28.9818,-94.9186,4.0,1.953586445,83.23835638,2.38,'11111222,11111222,11111222' 
TABS,ioos:station:wmo:42043:1,2013-02-02T19:00:00Z,28.9818,-94.9186,4.0,2.083890592,74.69626741,2.48,'11111222,11111222,11111222' 
TABS,ioos:station:wmo:42043:1,2013-02-02T19:30:00Z,28.9818,-94.9186,4.0,2.376825614,85.65634929,3.12,'11111222,11111222,11111222' 
TABS,ioos:station:wmo:42043:1,2013-02-02T20:00:00Z,28.9818,-94.9186,4.0,2.966226559,103.8492385,3.49,'11111222,11111222,11111222' 
TABS,ioos:station:wmo:42043:1,2013-02-02T20:30:00Z,28.9818,-94.9186,4.0,3.102805182,100.5860211,3.74,'11111222,11111222,11111222' 
TABS,ioos:station:wmo:42043:1,2013-02-02T21:00:00Z,28.9818,-94.9186,4.0,2.980419434,111.6589868,3.59,'11111222,11111222,11111222' 
TABS,ioos:station:wmo:42043:1,2013-02-02T21:30:00Z,28.9818,-94.9186,4.0,3.310589071,115.0172559,3.89,'11111222,11111222,11111222' 
TABS,ioos:station:wmo:42043:1,2013-02-02T22:00:00Z,28.9818,-94.9186,4.0,3.079951298,119.1453002,3.8,'11111222,11111222,11111222' 
TABS,ioos:station:wmo:42043:1,2013-02-02T22:30:00Z,28.9818,-94.9186,4.0,2.959408725,124.1199847,3.61,'11111222,11111222,11111222' 
TABS,ioos:station:wmo:42043:1,2013-02-02T23:00:00Z,28.9818,-94.9186,4.0,3.432098483,127.304282,4.16,'11111222,11111222,11111222' 
TABS,ioos:station:wmo:42043:1,2013-02-02T23:30:00Z,28.9818,-94.9186,4.0,3.035951251,130.4583306,3.57,'11111222,11111222,11111222' 
TABS,ioos:station:wmo:42043:1,2013-02-03T00:00:00Z,28.9818,-94.9186,4.0,2.552743622,135.4764458,3.02,'11111222,11111222,11111222' 
TABS,ioos:station:wmo:42043:1,2013-02-03T00:30:00Z,28.9818,-94.9186,4.0,2.357901609,155.1742135,2.88,'11111222,11111222,11111222' 
TABS,ioos:station:wmo:42043:1,2013-02-03T01:00:00Z,28.9818,-94.9186,4.0,2.673798796,146.9045536,3.18,'11111222,11111222,11111222' 
TABS,ioos:station:wmo:42043:1,2013-02-03T01:30:00Z,28.9818,-94.9186,4.0,2.411078597,165.099443,2.98,'11111222,11111222,11111222' 
TABS,ioos:station:wmo:42043:1,2013-02-03T02:00:00Z,28.9818,-94.9186,4.0,2.21576172,149.0365263,2.77,'11111222,11111222,11111222' 
TABS,ioos:station:wmo:42043:1,2013-02-03T02:30:00Z,28.9818,-94.9186,4.0,2.587121953,155.8129135,3.28,'11111222,11111222,11111222' 
TABS,ioos:station:wmo:42043:1,2013-02-03T03:00:00Z,28.9818,-94.9186,4.0,2.441003892,156.5859304,3.01,'11111222,11111222,11111222' 
TABS,ioos:station:wmo:42043:1,2013-02-03T03:30:00Z,28.9818,-94.9186,4.0,2.098975941,151.2373201,2.62,'11111222,11111222,11111222' 
TABS,ioos:station:wmo:42043:1,2013-02-03T04:00:00Z,28.9818,-94.9186,4.0,1.825376673,147.5290941,2.2,'11111222,11111222,11111222' 
TABS,ioos:station:wmo:42043:1,2013-02-03T04:30:00Z,28.9818,-94.9186,4.0,1.82463695,153.2947912,2.2,'11111222,11111222,11111222' 
TABS,ioos:station:wmo:42043:1,2013-02-03T05:00:00Z,28.9818,-94.9186,4.0,1.64468842,146.4068416,2.17,'11111222,11111222,11111222' 
TABS,ioos:station:wmo:42043:1,2013-02-03T05:30:00Z,28.9818,-94.9186,4.0,1.769180601,169.5795224,2.14,'11111222,11111222,11111222' 
TABS,ioos:station:wmo:42043:1,2013-02-03T06:00:00Z,28.9818,-94.9186,4.0,1.329247908,121.777279,1.62,'11111222,11111222,11111222' 
TABS,ioos:station:wmo:42043:1,2013-02-03T06:30:00Z,28.9818,-94.9186,4.0,1.504160896,111.4481071,1.83,'11111222,11111222,11111222' 
TABS,ioos:station:wmo:42043:1,2013-02-03T07:00:00Z,28.9818,-94.9186,4.0,0.822192192,138.9454927,1.32,'11111222,11111222,11111222' 
TABS,ioos:station:wmo:42043:1,2013-02-03T07:30:00Z,28.9818,-94.9186,4.0,0.462276973,51.1462956,0.71,'11111222,11111222,11111222' 
TABS,ioos:station:wmo:42043:1,2013-02-03T08:00:00Z,28.9818,-94.9186,4.0,0.863712915,5.314322784,1.2,'11111222,11111222,11111222' 
TABS,ioos:station:wmo:42043:1,2013-02-03T08:30:00Z,28.9818,-94.9186,4.0,0.73545904,348.2315281,1.02,'11111222,11111222,11111222' 
TABS,ioos:station:wmo:42043:1,2013-02-03T09:00:00Z,28.9818,-94.9186,4.0,2.081657993,337.9939871,2.95,'11111222,11111222,11111222' 
TABS,ioos:station:wmo:42043:1,2013-02-03T09:30:00Z,28.9818,-94.9186,4.0,1.26015872,324.0393564,1.62,'11111222,11111222,11111222' 
TABS,ioos:station:wmo:42043:1,2013-02-03T10:00:00Z,28.9818,-94.9186,4.0,2.016457289,344.17152,2.58,'11111222,11111222,11111222' 
TABS,ioos:station:wmo:42043:1,2013-02-03T10:30:00Z,28.9818,-94.9186,4.0,3.495854688,347.2754636,4.3,'11111222,11111222,11111222' 
TABS,ioos:station:wmo:42043:1,2013-02-03T11:00:00Z,28.9818,-94.9186,4.0,4.060898915,352.9272904,5.02,'11111222,11111222,11111222' 
TABS,ioos:station:wmo:42043:1,2013-02-03T11:30:00Z,28.9818,-94.9186,4.0,3.040411156,0.942067171,3.75,'11111222,11111222,11111222' 
TABS,ioos:station:wmo:42043:1,2013-02-03T12:00:00Z,28.9818,-94.9186,4.0,2.865309756,7.620843029,3.68,'11111222,11111222,11111222' 
TABS,ioos:station:wmo:42043:1,2013-02-03T12:30:00Z,28.9818,-94.9186,4.0,4.31723291,19.48394874,5.3,'11111222,11111222,11111222' 
TABS,ioos:station:wmo:42043:1,2013-02-03T13:00:00Z,28.9818,-94.9186,4.0,6.095900262,48.99058808,7.25,'11111222,11111222,11111222' 
TABS,ioos:station:wmo:42043:1,2013-02-03T13:30:00Z,28.9818,-94.9186,4.0,5.773188027,50.27034274,7.12,'11111222,11111222,11111222' 
TABS,ioos:station:wmo:42043:1,2013-02-03T14:00:00Z,28.9818,-94.9186,4.0,6.277658799,50.29927346,7.67,'11111222,11111222,11111222' 
TABS,ioos:station:wmo:42043:1,2013-02-03T14:30:00Z,28.9818,-94.9186,4.0,5.759800344,51.6971776,7.3,'11111222,11111222,11111222' 
TABS,ioos:station:wmo:42043:1,2013-02-03T15:00:00Z,28.9818,-94.9186,4.0,5.970134002,53.51365233,7.54,'11111222,11111222,11111222' 
TABS,ioos:station:wmo:42043:1,2013-02-03T15:30:00Z,28.9818,-94.9186,4.0,6.040695324,56.20436429,7.37,'11111222,11111222,11111222' 
TABS,ioos:station:wmo:42043:1,2013-02-03T16:00:00Z,28.9818,-94.9186,4.0,6.05879526,47.54151375,7.35,'11111222,11111222,11111222' 
TABS,ioos:station:wmo:42043:1,2013-02-03T16:30:00Z,28.9818,-94.9186,4.0,5.879328193,60.55695676,7.23,'11111222,11111222,11111222' 
TABS,ioos:station:wmo:42043:1,2013-02-03T17:00:00Z,28.9818,-94.9186,4.0,5.823340965,62.5985378,7.12,'11111222,11111222,11111222' 
TABS,ioos:station:wmo:42043:1,2013-02-03T17:30:00Z,28.9818,-94.9186,4.0,5.78070065,69.65239284,7.18,'11111222,11111222,11111222' 
TABS,ioos:station:wmo:42043:1,2013-02-03T18:00:00Z,28.9818,-94.9186,4.0,6.161371601,68.18095245,7.51,'11111222,11111222,11111222' 
TABS,ioos:station:wmo:42043:1,2013-02-03T18:30:00Z,28.9818,-94.9186,4.0,5.619145843,68.27395833,6.9,'11111222,11111222,11111222' 
TABS,ioos:station:wmo:42043:1,2013-02-03T19:00:00Z,28.9818,-94.9186,4.0,5.445456822,71.69776406,6.81,'11111222,11111222,11111222' 
TABS,ioos:station:wmo:42043:1,2013-02-03T19:30:00Z,28.9818,-94.9186,4.0,4.987755006,72.61818412,5.98,'11111222,11111222,11111222' 
TABS,ioos:station:wmo:42043:1,2013-02-03T20:00:00Z,28.9818,-94.9186,4.0,5.235656597,83.30893749,6.26,'11111222,11111222,11111222' 
TABS,ioos:station:wmo:42043:1,2013-02-03T20:30:00Z,28.9818,-94.9186,4.0,5.214230528,87.69140713,6.46,'11111222,11111222,11111222' 
TABS,ioos:station:wmo:42043:1,2013-02-03T21:00:00Z,28.9818,-94.9186,4.0,5.041477958,93.86740534,6.15,'11111222,11111222,11111222' 
TABS,ioos:station:wmo:42043:1,2013-02-03T21:30:00Z,28.9818,-94.9186,4.0,5.696402373,92.71715712,7.45,'11111222,11111222,11111222' 
TABS,ioos:station:wmo:42043:1,2013-02-04T00:00:00Z,28.9818,-94.9186,4.0,5.707933076,108.2766133,6.97,'11111222,11111222,11111222' 
TABS,ioos:station:wmo:42043:1,2013-02-04T00:30:00Z,28.9818,-94.9186,4.0,5.702017187,104.1097438,6.85,'11111222,11111222,11111222' 
TABS,ioos:station:wmo:42043:1,2013-02-04T01:00:00Z,28.9818,-94.9186,4.0,5.379749065,111.3666811,6.6,'11111222,11111222,11111222' 
TABS,ioos:station:wmo:42043:1,2013-02-04T01:30:00Z,28.9818,-94.9186,4.0,4.559232392,125.5380156,5.56,'11111222,11111222,11111222' 
TABS,ioos:station:wmo:42043:1,2013-02-04T02:00:00Z,28.9818,-94.9186,4.0,4.257757626,131.4774094,5.15,'11111222,11111222,11111222' 
TABS,ioos:station:wmo:42043:1,2013-02-04T02:30:00Z,28.9818,-94.9186,4.0,3.755981896,141.269022,4.72,'11111222,11111222,11111222' 
TABS,ioos:station:wmo:42043:1,2013-02-04T03:00:00Z,28.9818,-94.9186,4.0,3.868035677,134.4766041,4.82,'11111222,11111222,11111222' 
TABS,ioos:station:wmo:42043:1,2013-02-04T03:30:00Z,28.9818,-94.9186,4.0,3.773022661,137.6857605,4.66,'11111222,11111222,11111222' 
TABS,ioos:station:wmo:42043:1,2013-02-04T04:00:00Z,28.9818,-94.9186,4.0,3.798644495,133.4002947,4.59,'11111222,11111222,11111222' 
TABS,ioos:station:wmo:42043:1,2013-02-04T04:30:00Z,28.9818,-94.9186,4.0,3.860828927,141.9430945,4.97,'11111222,11111222,11111222' 
TABS,ioos:station:wmo:42043:1,2013-02-04T05:00:00Z,28.9818,-94.9186,4.0,3.677200022,148.3417438,4.81,'11111222,11111222,11111222' 
TABS,ioos:station:wmo:42043:1,2013-02-04T05:30:00Z,28.9818,-94.9186,4.0,3.12057687,142.0286955,3.94,'11111222,11111222,11111222' 
TABS,ioos:station:wmo:42043:1,2013-02-04T06:00:00Z,28.9818,-94.9186,4.0,3.36808551,142.7221234,4.22,'11111222,11111222,11111222' 
TABS,ioos:station:wmo:42043:1,2013-02-04T06:30:00Z,28.9818,-94.9186,4.0,3.72758635,133.5872372,4.71,'11111222,11111222,11111222' 
TABS,ioos:station:wmo:42043:1,2013-02-04T07:00:00Z,28.9818,-94.9186,4.0,4.625883699,128.5053906,5.33,'11111222,11111222,11111222' 
TABS,ioos:station:wmo:42043:1,2013-02-04T07:30:00Z,28.9818,-94.9186,4.0,4.452527372,128.8008153,5.17,'11111222,11111222,11111222' 
TABS,ioos:station:wmo:42043:1,2013-02-04T08:00:00Z,28.9818,-94.9186,4.0,4.668040274,128.5642947,5.7,'11111222,11111222,11111222' 
TABS,ioos:station:wmo:42043:1,2013-02-04T08:30:00Z,28.9818,-94.9186,4.0,3.650890302,133.0024405,4.33,'11111222,11111222,11111222' 
TABS,ioos:station:wmo:42043:1,2013-02-04T09:00:00Z,28.9818,-94.9186,4.0,3.388288654,136.5549307,4.2,'11111222,11111222,11111222' 
TABS,ioos:station:wmo:42043:1,2013-02-04T09:30:00Z,28.9818,-94.9186,4.0,2.944961799,132.2478367,3.56,'11111222,11111222,11111222' 
TABS,ioos:station:wmo:42043:1,2013-02-04T10:00:00Z,28.9818,-94.9186,4.0,3.325687899,122.9736542,4.03,'11111222,11111222,11111222' 
TABS,ioos:station:wmo:42043:1,2013-02-04T10:30:00Z,28.9818,-94.9186,4.0,3.854672489,142.0601326,4.57,'11111222,11111222,11111222' 
TABS,ioos:station:wmo:42043:1,2013-02-04T11:00:00Z,28.9818,-94.9186,4.0,4.034476422,142.2498709,4.76,'11111222,11111222,11111222' 
TABS,ioos:station:wmo:42043:1,2013-02-04T11:30:00Z,28.9818,-94.9186,4.0,3.828276375,145.10636,4.61,'11111222,11111222,11111222' 
TABS,ioos:station:wmo:42043:1,2013-02-04T12:00:00Z,28.9818,-94.9186,4.0,3.544009029,143.2597344,4.31,'11111222,11111222,11111222' 
TABS,ioos:station:wmo:42043:1,2013-02-04T12:30:00Z,28.9818,-94.9186,4.0,3.429577233,141.3926744,4.21,'11111222,11111222,11111222' 
TABS,ioos:station:wmo:42043:1,2013-02-04T13:00:00Z,28.9818,-94.9186,4.0,3.560912804,140.8127845,4.38,'11111222,11111222,11111222' 
TABS,ioos:station:wmo:42043:1,2013-02-04T13:30:00Z,28.9818,-94.9186,4.0,3.993407067,141.6093791,4.62,'11111222,11111222,11111222' 
TABS,ioos:station:wmo:42043:1,2013-02-04T14:00:00Z,28.9818,-94.9186,4.0,3.436800838,135.7076334,4.27,'11111222,11111222,11111222' 
TABS,ioos:station:wmo:42043:1,2013-02-04T14:30:00Z,28.9818,-94.9186,4.0,3.184603586,127.9857729,3.88,'11111222,11111222,11111222' 
TABS,ioos:station:wmo:42043:1,2013-02-04T15:00:00Z,28.9818,-94.9186,4.0,3.417967232,132.7476112,4.09,'11111222,11111222,11111222' 
TABS,ioos:station:wmo:42043:1,2013-02-04T15:30:00Z,28.9818,-94.9186,4.0,3.19,136.3974934,3.94,'11111222,11111222,11111222' 
TABS,ioos:station:wmo:42043:1,2013-02-04T16:00:00Z,28.9818,-94.9186,4.0,2.439528643,134.8342418,3.36,'11111222,11111222,11111222' 
TABS,ioos:station:wmo:42043:1,2013-02-04T16:30:00Z,28.9818,-94.9186,4.0,2.276356738,116.9031014,2.81,'11111222,11111222,11111222' 
TABS,ioos:station:wmo:42043:1,2013-02-04T17:00:00Z,28.9818,-94.9186,4.0,2.926738799,122.4415081,3.46,'11111222,11111222,11111222' 
TABS,ioos:station:wmo:42043:1,2013-02-04T17:30:00Z,28.9818,-94.9186,4.0,3.781137395,131.9987984,4.84,'11111222,11111222,11111222' 
TABS,ioos:station:wmo:42043:1,2013-02-04T18:00:00Z,28.9818,-94.9186,4.0,3.480057471,129.6372588,4.17,'11111222,11111222,11111222' 
TABS,ioos:station:wmo:42043:1,2013-02-04T18:30:00Z,28.9818,-94.9186,4.0,3.858458241,132.1641346,4.65,'11111222,11111222,11111222' 
TABS,ioos:station:wmo:42043:1,2013-02-04T19:00:00Z,28.9818,-94.9186,4.0,3.170646622,122.6378522,4.21,'11111222,11111222,11111222' 
TABS,ioos:station:wmo:42043:1,2013-02-04T19:30:00Z,28.9818,-94.9186,4.0,2.469412886,118.0182489,3.06,'11111222,11111222,11111222' 
TABS,ioos:station:wmo:42043:1,2013-02-04T20:00:00Z,28.9818,-94.9186,4.0,3.032094985,126.4167143,4.08,'11111222,11111222,11111222' 
TABS,ioos:station:wmo:42043:1,2013-02-04T20:30:00Z,28.9818,-94.9186,4.0,3.183991206,119.5443528,3.99,'11111222,11111222,11111222' 